Погода в Дечене

Китай     27°49′13″N   99°42′15″E
темп.,
°C
ветер,
м/с
пор.,
м/с
влажн.,
%
обл.,
%
осадки,
мм/ч
давл.,
гПа
погр.,
м
6 марта, сб
сб623:00−2юз239563 0.2 1016276
02:00−3юз259481 0.8 1017535
05:00−7ю119688 0.1 101874
08:00−7ююз129489 0.1 102038
11:000зюз245467 0.0 10191092
14:00+3юз584882 0.2 10131783
17:00+2юз61065100 0.6 10111471
20:00−5ю339157 0.6 101658
7 марта, вс
вс723:00−6ю229324 0.0 102025
02:00−6ююз229839 0.1 102132
05:00−5юз129796 0.5 101990
08:00−5ююз119598 0.9 102098
11:00+1зюз3572100 0.6 1019943
14:00+3зюз575999 1.2 10141415
17:00+4зюз575657 0.1 10101301
20:00−4юз229035 0.1 101621
8 марта, пн
пн823:00−3юз119378 0.0 102143
02:00−2з129088 0.1 102285
05:00−3з129297 0.1 1021123
08:00−5сз119893 0.1 102339
11:00+4з235154 0.0 1020842
14:00+6зюз444127 0.0 10141351
17:00+6юз56492 0.0 10111513
20:00−2ююз229025 0.0 101621
9 марта, вт
вт923:00−2ю129072 0.0 102021
02:00−1юз129486 0.1 102071
05:00−2зюз129898 0.3 102074
08:00−4з129796 0.4 102180
11:00+3зюз225983 0.0 1019895
14:00+4зюз345591 0.1 10131208
17:00+5зюз3554100 0.1 10101487
20:00−2ююз128881 0.1 101521
10 марта, ср
ср1023:00−1ююз129479 0.1 102027
02:00−1зюз129780 0.3 102195
05:00−2зсз119499 0.2 102084
08:00−4зсз129891 0.3 102239
11:00+4з226077 0.0 1019781
14:00+7зюз335375 0.1 10141084
17:00+7юз565129 0.0 10111268
20:000ююз238648 0.1 101629